Year,Month,Day,Hour,Minute,Value (Times are PST for temperature in C)
2015,08,23,00,00,14.80
2015,08,23,00,01,14.80
2015,08,23,00,02,14.70
2015,08,23,00,03,14.60
2015,08,23,00,04,14.50
2015,08,23,00,05,14.40
2015,08,23,00,06,14.30
2015,08,23,00,07,14.30
2015,08,23,00,08,14.20
2015,08,23,00,09,14.10
2015,08,23,00,10,14.10
2015,08,23,00,11,14.10
2015,08,23,00,12,14.00
2015,08,23,00,13,14.00
2015,08,23,00,14,14.00
2015,08,23,00,15,14.00
2015,08,23,00,16,14.00
2015,08,23,00,17,14.00
2015,08,23,00,18,14.00
2015,08,23,00,19,14.00
2015,08,23,00,20,14.00
2015,08,23,00,21,14.00
2015,08,23,00,22,14.00
2015,08,23,00,23,14.00
2015,08,23,00,24,14.00
2015,08,23,00,25,14.00
2015,08,23,00,26,14.00
2015,08,23,00,27,14.00
2015,08,23,00,28,14.00
2015,08,23,00,29,14.00
2015,08,23,00,30,14.00
2015,08,23,00,31,14.00
2015,08,23,00,32,14.00
2015,08,23,00,33,14.00
2015,08,23,00,34,13.90
2015,08,23,00,35,13.90
2015,08,23,00,36,13.90
2015,08,23,00,37,13.90
2015,08,23,00,38,13.90
2015,08,23,00,39,13.90
2015,08,23,00,40,13.80
2015,08,23,00,41,13.80
2015,08,23,00,42,13.80
2015,08,23,00,43,13.80
2015,08,23,00,44,13.80
2015,08,23,00,45,13.80
2015,08,23,00,46,13.70
2015,08,23,00,47,13.70
2015,08,23,00,48,13.70
2015,08,23,00,49,13.60
2015,08,23,00,50,13.60
2015,08,23,00,51,13.60
2015,08,23,00,52,13.60
2015,08,23,00,53,13.60
2015,08,23,00,54,13.60
2015,08,23,00,55,13.70
2015,08,23,00,56,13.60
2015,08,23,00,57,13.60
2015,08,23,00,58,13.60
2015,08,23,00,59,13.60
2015,08,23,01,00,13.60
2015,08,23,01,01,13.60
2015,08,23,01,02,13.60
2015,08,23,01,03,13.60
2015,08,23,01,04,13.60
2015,08,23,01,05,13.60
2015,08,23,01,06,13.70
2015,08,23,01,07,13.70
2015,08,23,01,08,13.70
2015,08,23,01,09,13.70
2015,08,23,01,10,13.70
2015,08,23,01,11,13.70
2015,08,23,01,12,13.70
2015,08,23,01,13,13.70
2015,08,23,01,14,13.70
2015,08,23,01,15,13.70
2015,08,23,01,16,13.60
2015,08,23,01,17,13.60
2015,08,23,01,18,13.60
2015,08,23,01,19,13.50
2015,08,23,01,20,13.40
2015,08,23,01,21,13.40
2015,08,23,01,22,13.30
2015,08,23,01,23,13.20
2015,08,23,01,24,13.10
2015,08,23,01,25,13.10
2015,08,23,01,26,13.00
2015,08,23,01,27,13.00
2015,08,23,01,28,12.90
2015,08,23,01,29,12.90
2015,08,23,01,30,12.90
2015,08,23,01,31,12.90
2015,08,23,01,32,12.90
2015,08,23,01,33,12.90
2015,08,23,01,34,12.90
2015,08,23,01,35,12.80
2015,08,23,01,36,12.80
2015,08,23,01,37,12.80
2015,08,23,01,38,12.80
2015,08,23,01,39,12.80
2015,08,23,01,40,12.80
2015,08,23,01,41,12.80
2015,08,23,01,42,12.80
2015,08,23,01,43,12.70
2015,08,23,01,44,12.70
2015,08,23,01,45,12.70
2015,08,23,01,46,12.70
2015,08,23,01,47,12.70
2015,08,23,01,48,12.70
2015,08,23,01,49,12.70
2015,08,23,01,50,12.70
2015,08,23,01,51,12.70
2015,08,23,01,52,12.80
2015,08,23,01,53,12.80
2015,08,23,01,54,12.90
2015,08,23,01,55,12.90
2015,08,23,01,56,13.00
2015,08,23,01,57,13.00
2015,08,23,01,58,13.10
2015,08,23,01,59,13.10
2015,08,23,02,00,13.10
2015,08,23,02,01,13.10
2015,08,23,02,02,13.10
2015,08,23,02,03,13.10
2015,08,23,02,04,13.10
2015,08,23,02,05,13.10
2015,08,23,02,06,13.10
2015,08,23,02,07,13.10
2015,08,23,02,08,13.10
2015,08,23,02,09,13.00
2015,08,23,02,10,13.00
2015,08,23,02,11,13.00
2015,08,23,02,12,12.90
2015,08,23,02,13,12.90
2015,08,23,02,14,12.90
2015,08,23,02,15,12.80
2015,08,23,02,16,12.80
2015,08,23,02,17,12.80
2015,08,23,02,18,12.70
2015,08,23,02,19,12.70
2015,08,23,02,20,12.60
2015,08,23,02,21,12.50
2015,08,23,02,22,12.50
2015,08,23,02,23,12.40
2015,08,23,02,24,12.40
2015,08,23,02,25,12.40
2015,08,23,02,26,12.30
2015,08,23,02,27,12.30
2015,08,23,02,28,12.30
2015,08,23,02,29,12.30
2015,08,23,02,30,12.30
2015,08,23,02,31,12.30
2015,08,23,02,32,12.30
2015,08,23,02,33,12.30
2015,08,23,02,34,12.20
2015,08,23,02,35,12.20
2015,08,23,02,36,12.20
2015,08,23,02,37,12.30
2015,08,23,02,38,12.30
2015,08,23,02,39,12.30
2015,08,23,02,40,12.30
2015,08,23,02,41,12.30
2015,08,23,02,42,12.40
2015,08,23,02,43,12.40
2015,08,23,02,44,12.40
2015,08,23,02,45,12.40
2015,08,23,02,46,12.40
2015,08,23,02,47,12.30
2015,08,23,02,48,12.40
2015,08,23,02,49,12.40
2015,08,23,02,50,12.40
2015,08,23,02,51,12.40
2015,08,23,02,52,12.40
2015,08,23,02,53,12.40
2015,08,23,02,54,12.40
2015,08,23,02,55,12.40
2015,08,23,02,56,12.40
2015,08,23,02,57,12.30
2015,08,23,02,58,12.30
2015,08,23,02,59,12.30
2015,08,23,03,00,12.20
2015,08,23,03,01,12.20
2015,08,23,03,02,12.10
2015,08,23,03,03,12.10
2015,08,23,03,04,12.00
2015,08,23,03,05,12.00
2015,08,23,03,06,12.00
2015,08,23,03,07,11.90
2015,08,23,03,08,11.90
2015,08,23,03,09,11.90
2015,08,23,03,10,11.90
2015,08,23,03,11,11.90
2015,08,23,03,12,11.90
2015,08,23,03,13,11.90
2015,08,23,03,14,11.90
2015,08,23,03,15,11.90
2015,08,23,03,16,11.90
2015,08,23,03,17,11.90
2015,08,23,03,18,11.80
2015,08,23,03,19,11.80
2015,08,23,03,20,11.80
2015,08,23,03,21,11.80
2015,08,23,03,22,11.80
2015,08,23,03,23,11.90
2015,08,23,03,24,11.90
2015,08,23,03,25,11.90
2015,08,23,03,26,11.90
2015,08,23,03,27,11.90
2015,08,23,03,28,11.90
2015,08,23,03,29,11.90
2015,08,23,03,30,11.90
2015,08,23,03,31,11.90
2015,08,23,03,32,11.90
2015,08,23,03,33,11.90
2015,08,23,03,34,11.90
2015,08,23,03,35,11.90
2015,08,23,03,36,11.80
2015,08,23,03,37,11.80
2015,08,23,03,38,11.80
2015,08,23,03,39,11.70
2015,08,23,03,40,11.70
2015,08,23,03,41,11.70
2015,08,23,03,42,11.60
2015,08,23,03,43,11.60
2015,08,23,03,44,11.60
2015,08,23,03,45,11.60
2015,08,23,03,46,11.60
2015,08,23,03,47,11.60
2015,08,23,03,48,11.60
2015,08,23,03,49,11.60
2015,08,23,03,50,11.60
2015,08,23,03,51,11.60
2015,08,23,03,52,11.50
2015,08,23,03,53,11.50
2015,08,23,03,54,11.50
2015,08,23,03,55,11.50
2015,08,23,03,56,11.50
2015,08,23,03,57,11.40
2015,08,23,03,58,11.40
2015,08,23,03,59,11.40
2015,08,23,04,00,11.40
2015,08,23,04,01,11.40
2015,08,23,04,02,11.30
2015,08,23,04,03,11.30
2015,08,23,04,04,11.30
2015,08,23,04,05,11.20
2015,08,23,04,06,11.20
2015,08,23,04,07,11.20
2015,08,23,04,08,11.10
2015,08,23,04,09,11.10
2015,08,23,04,10,11.10
2015,08,23,04,11,11.10
2015,08,23,04,12,11.10
2015,08,23,04,13,11.10
2015,08,23,04,14,11.20
2015,08,23,04,15,11.20
2015,08,23,04,16,11.20
2015,08,23,04,17,11.20
2015,08,23,04,18,11.20
2015,08,23,04,19,11.20
2015,08,23,04,20,11.30
2015,08,23,04,21,11.30
2015,08,23,04,22,11.30
2015,08,23,04,23,11.30
2015,08,23,04,24,11.30
2015,08,23,04,25,11.30
2015,08,23,04,26,11.20
2015,08,23,04,27,11.20
2015,08,23,04,28,11.20
2015,08,23,04,29,11.20
2015,08,23,04,30,11.20
2015,08,23,04,31,11.10
2015,08,23,04,32,11.10
2015,08,23,04,33,11.10
2015,08,23,04,34,11.10
2015,08,23,04,35,11.10
2015,08,23,04,36,11.10
2015,08,23,04,37,11.00
2015,08,23,04,38,11.00
2015,08,23,04,39,11.00
2015,08,23,04,40,10.90
2015,08,23,04,41,10.90
2015,08,23,04,42,10.90
2015,08,23,04,43,10.90
2015,08,23,04,44,10.90
2015,08,23,04,45,10.90
2015,08,23,04,46,10.90
2015,08,23,04,47,10.90
2015,08,23,04,48,10.90
2015,08,23,04,49,10.90
2015,08,23,04,50,10.80
2015,08,23,04,51,10.80
2015,08,23,04,52,10.70
2015,08,23,04,53,10.60
2015,08,23,04,54,10.60
2015,08,23,04,55,10.60
2015,08,23,04,56,10.50
2015,08,23,04,57,10.50
2015,08,23,04,58,10.50
2015,08,23,04,59,10.50
2015,08,23,05,00,10.40
2015,08,23,05,01,10.40
2015,08,23,05,02,10.40
2015,08,23,05,03,10.40
2015,08,23,05,04,10.40
2015,08,23,05,05,10.40
2015,08,23,05,06,10.40
2015,08,23,05,07,10.40
2015,08,23,05,08,10.40
2015,08,23,05,09,10.40
2015,08,23,05,10,10.40
2015,08,23,05,11,10.40
2015,08,23,05,12,10.40
2015,08,23,05,13,10.40
2015,08,23,05,14,10.40
2015,08,23,05,15,10.40
2015,08,23,05,16,10.40
2015,08,23,05,17,10.40
2015,08,23,05,18,10.40
2015,08,23,05,19,10.40
2015,08,23,05,20,10.40
2015,08,23,05,21,10.50
2015,08,23,05,22,10.50
2015,08,23,05,23,10.50
2015,08,23,05,24,10.50
2015,08,23,05,25,10.50
2015,08,23,05,26,10.50
2015,08,23,05,27,10.60
2015,08,23,05,28,10.60
2015,08,23,05,29,10.60
2015,08,23,05,30,10.60
2015,08,23,05,31,10.60
2015,08,23,05,32,10.60
2015,08,23,05,33,10.60
2015,08,23,05,34,10.60
2015,08,23,05,35,10.60
2015,08,23,05,36,10.60
2015,08,23,05,37,10.60
2015,08,23,05,38,10.60
2015,08,23,05,39,10.60
2015,08,23,05,40,10.60
2015,08,23,05,41,10.60
2015,08,23,05,42,10.60
2015,08,23,05,43,10.60
2015,08,23,05,44,10.60
2015,08,23,05,45,10.60
2015,08,23,05,46,10.70
2015,08,23,05,47,10.70
2015,08,23,05,48,10.70
2015,08,23,05,49,10.70
2015,08,23,05,50,10.70
2015,08,23,05,51,10.70
2015,08,23,05,52,10.70
2015,08,23,05,53,10.70
2015,08,23,05,54,10.70
2015,08,23,05,55,10.80
2015,08,23,05,56,10.80
2015,08,23,05,57,10.80
2015,08,23,05,58,10.80
2015,08,23,05,59,10.80
2015,08,23,06,00,10.80
2015,08,23,06,01,10.80
2015,08,23,06,02,10.80
2015,08,23,06,03,10.80
2015,08,23,06,04,10.80
2015,08,23,06,05,10.80
2015,08,23,06,06,10.80
2015,08,23,06,07,10.80
2015,08,23,06,08,10.80
2015,08,23,06,09,10.80
2015,08,23,06,10,10.80
2015,08,23,06,11,10.80
2015,08,23,06,12,10.70
2015,08,23,06,13,10.70
2015,08,23,06,14,10.70
2015,08,23,06,15,10.70
2015,08,23,06,16,10.70
2015,08,23,06,17,10.70
2015,08,23,06,18,10.70
2015,08,23,06,19,10.70
2015,08,23,06,20,10.70
2015,08,23,06,21,10.70
2015,08,23,06,22,10.70
2015,08,23,06,23,10.70
2015,08,23,06,24,10.70
2015,08,23,06,25,10.70
2015,08,23,06,26,10.70
2015,08,23,06,27,10.60
2015,08,23,06,28,10.60
2015,08,23,06,29,10.60
2015,08,23,06,30,10.60
2015,08,23,06,31,10.60
2015,08,23,06,32,10.60
2015,08,23,06,33,10.60
2015,08,23,06,34,10.60
2015,08,23,06,35,10.60
2015,08,23,06,36,10.60
2015,08,23,06,37,10.60
2015,08,23,06,38,10.60
2015,08,23,06,39,10.50
2015,08,23,06,40,10.50
2015,08,23,06,41,10.50
2015,08,23,06,42,10.50
2015,08,23,06,43,10.40
2015,08,23,06,44,10.40
2015,08,23,06,45,10.40
2015,08,23,06,46,10.40
2015,08,23,06,47,10.30
2015,08,23,06,48,10.30
2015,08,23,06,49,10.30
2015,08,23,06,50,10.30
2015,08,23,06,51,10.30
2015,08,23,06,52,10.30
2015,08,23,06,53,10.30
2015,08,23,06,54,10.30
2015,08,23,06,55,10.20
2015,08,23,06,56,10.20
2015,08,23,06,57,10.30
2015,08,23,06,58,10.30
2015,08,23,06,59,10.30
2015,08,23,07,00,10.30
2015,08,23,07,01,10.30
2015,08,23,07,02,10.40
2015,08,23,07,03,10.40
2015,08,23,07,04,10.40
2015,08,23,07,05,10.50
2015,08,23,07,06,10.60
2015,08,23,07,07,10.70
2015,08,23,07,08,10.70
2015,08,23,07,09,10.80
2015,08,23,07,10,10.80
2015,08,23,07,11,10.90
2015,08,23,07,12,10.90
2015,08,23,07,13,11.00
2015,08,23,07,14,11.00
2015,08,23,07,15,11.10
2015,08,23,07,16,11.20
2015,08,23,07,17,11.20
2015,08,23,07,18,11.30
2015,08,23,07,19,11.30
2015,08,23,07,20,11.30
2015,08,23,07,21,11.40
2015,08,23,07,22,11.40
2015,08,23,07,23,11.50
2015,08,23,07,24,11.50
2015,08,23,07,25,11.50
2015,08,23,07,26,11.60
2015,08,23,07,27,11.60
2015,08,23,07,28,11.70
2015,08,23,07,29,11.80
2015,08,23,07,30,11.80
2015,08,23,07,31,11.80
2015,08,23,07,32,11.90
2015,08,23,07,33,11.90
2015,08,23,07,34,11.90
2015,08,23,07,35,11.90
2015,08,23,07,36,11.90
2015,08,23,07,37,12.00
2015,08,23,07,38,12.00
2015,08,23,07,39,12.00
2015,08,23,07,40,12.00
2015,08,23,07,41,12.10
2015,08,23,07,42,12.10
2015,08,23,07,43,12.10
2015,08,23,07,44,12.10
2015,08,23,07,45,12.20
2015,08,23,07,46,12.20
2015,08,23,07,47,12.30
2015,08,23,07,48,12.30
2015,08,23,07,49,12.40
2015,08,23,07,50,12.50
2015,08,23,07,51,12.60
2015,08,23,07,52,12.60
2015,08,23,07,53,12.70
2015,08,23,07,54,12.80
2015,08,23,07,55,12.90
2015,08,23,07,56,13.00
2015,08,23,07,57,13.00
2015,08,23,07,58,13.10
2015,08,23,07,59,13.20
2015,08,23,08,00,13.30
2015,08,23,08,01,13.40
2015,08,23,08,02,13.50
2015,08,23,08,03,13.60
2015,08,23,08,04,13.70
2015,08,23,08,05,13.80
2015,08,23,08,06,13.90
2015,08,23,08,07,14.00
2015,08,23,08,08,14.10
2015,08,23,08,09,14.10
2015,08,23,08,10,14.20
2015,08,23,08,11,14.30
2015,08,23,08,12,14.40
2015,08,23,08,13,14.50
2015,08,23,08,14,14.60
2015,08,23,08,15,14.70
2015,08,23,08,16,14.80
2015,08,23,08,17,14.90
2015,08,23,08,18,15.00
2015,08,23,08,19,15.10
2015,08,23,08,20,15.20
2015,08,23,08,21,15.20
2015,08,23,08,22,15.30
2015,08,23,08,23,15.40
2015,08,23,08,24,15.40
2015,08,23,08,25,15.50
2015,08,23,08,26,15.60
2015,08,23,08,27,15.70
2015,08,23,08,28,15.80
2015,08,23,08,29,15.90
2015,08,23,08,30,15.90
2015,08,23,08,31,16.00
2015,08,23,08,32,16.10
2015,08,23,08,33,16.20
2015,08,23,08,34,16.30
2015,08,23,08,35,16.30
2015,08,23,08,36,16.40
2015,08,23,08,37,16.50
2015,08,23,08,38,16.50
2015,08,23,08,39,16.60
2015,08,23,08,40,16.70
2015,08,23,08,41,16.80
2015,08,23,08,42,16.90
2015,08,23,08,43,17.00
2015,08,23,08,44,17.10
2015,08,23,08,45,17.20
2015,08,23,08,46,17.30
2015,08,23,08,47,17.40
2015,08,23,08,48,17.50
2015,08,23,08,49,17.50
2015,08,23,08,50,17.60
2015,08,23,08,51,17.70
2015,08,23,08,52,17.80
2015,08,23,08,53,17.90
2015,08,23,08,54,17.90
2015,08,23,08,55,18.00
2015,08,23,08,56,18.10
2015,08,23,08,57,18.20
2015,08,23,08,58,18.20
2015,08,23,08,59,18.30
2015,08,23,09,00,18.40
2015,08,23,09,01,18.50
2015,08,23,09,02,18.60
2015,08,23,09,03,18.60
2015,08,23,09,04,18.70
2015,08,23,09,05,18.80
2015,08,23,09,06,18.90
2015,08,23,09,07,18.90
2015,08,23,09,08,18.90
2015,08,23,09,09,18.90
2015,08,23,09,10,18.90
2015,08,23,09,11,19.00
2015,08,23,09,12,19.10
2015,08,23,09,13,19.10
2015,08,23,09,14,19.20
2015,08,23,09,15,19.30
2015,08,23,09,16,19.40
2015,08,23,09,17,19.50
2015,08,23,09,18,19.60
2015,08,23,09,19,19.60
2015,08,23,09,20,19.70
2015,08,23,09,21,19.80
2015,08,23,09,22,19.80
2015,08,23,09,23,19.90
2015,08,23,09,24,19.90
2015,08,23,09,25,20.00
2015,08,23,09,26,20.00
2015,08,23,09,27,20.10
2015,08,23,09,28,20.10
2015,08,23,09,29,20.10
2015,08,23,09,30,20.10
2015,08,23,09,31,20.10
2015,08,23,09,32,20.10
2015,08,23,09,33,20.10
2015,08,23,09,34,20.20
2015,08,23,09,35,20.20
2015,08,23,09,36,20.30
2015,08,23,09,37,20.30
2015,08,23,09,38,20.30
2015,08,23,09,39,20.30
2015,08,23,09,40,20.40
2015,08,23,09,41,20.40
2015,08,23,09,42,20.40
2015,08,23,09,43,20.40
2015,08,23,09,44,20.50
2015,08,23,09,45,20.50
2015,08,23,09,46,20.50
2015,08,23,09,47,20.60
2015,08,23,09,48,20.60
2015,08,23,09,49,20.70
2015,08,23,09,50,20.70
2015,08,23,09,51,20.70
2015,08,23,09,52,20.80
2015,08,23,09,53,20.70
2015,08,23,09,54,20.70
2015,08,23,09,55,20.70
2015,08,23,09,56,20.60
2015,08,23,09,57,20.50
2015,08,23,09,58,20.50
2015,08,23,09,59,20.40
2015,08,23,10,00,20.40
2015,08,23,10,01,20.40
2015,08,23,10,02,20.40
2015,08,23,10,03,20.40
2015,08,23,10,04,20.50
2015,08,23,10,05,20.50
2015,08,23,10,06,20.70
2015,08,23,10,07,20.80
2015,08,23,10,08,20.80
2015,08,23,10,09,20.80
2015,08,23,10,10,20.90
2015,08,23,10,11,20.90
2015,08,23,10,12,21.00
2015,08,23,10,13,21.10
2015,08,23,10,14,21.20
2015,08,23,10,15,21.20
2015,08,23,10,16,21.20
2015,08,23,10,17,21.20
2015,08,23,10,18,21.20
2015,08,23,10,19,21.20
2015,08,23,10,20,21.10
2015,08,23,10,21,21.10
2015,08,23,10,22,21.00
2015,08,23,10,23,20.90
2015,08,23,10,24,20.80
2015,08,23,10,25,20.90
2015,08,23,10,26,21.00
2015,08,23,10,27,21.20
2015,08,23,10,28,21.30
2015,08,23,10,29,21.30
2015,08,23,10,30,21.30
2015,08,23,10,31,21.30
2015,08,23,10,32,21.30
2015,08,23,10,33,21.20
2015,08,23,10,34,21.20
2015,08,23,10,35,21.20
2015,08,23,10,36,21.10
2015,08,23,10,37,21.00
2015,08,23,10,38,20.90
2015,08,23,10,39,20.80
2015,08,23,10,40,20.80
2015,08,23,10,41,20.80
2015,08,23,10,42,20.90
2015,08,23,10,43,20.90
2015,08,23,10,44,21.00
2015,08,23,10,45,21.10
2015,08,23,10,46,21.10
2015,08,23,10,47,21.20
2015,08,23,10,48,21.20
2015,08,23,10,49,21.20
2015,08,23,10,50,21.20
2015,08,23,10,51,21.20
2015,08,23,10,52,21.20
2015,08,23,10,53,21.30
2015,08,23,10,54,21.30
2015,08,23,10,55,21.30
2015,08,23,10,56,21.30
2015,08,23,10,57,21.40
2015,08,23,10,58,21.40
2015,08,23,10,59,21.50
2015,08,23,11,00,21.50
2015,08,23,11,01,21.40
2015,08,23,11,02,21.40
2015,08,23,11,03,21.40
2015,08,23,11,04,21.30
2015,08,23,11,05,21.30
2015,08,23,11,06,21.20
2015,08,23,11,07,21.20
2015,08,23,11,08,21.20
2015,08,23,11,09,21.20
2015,08,23,11,10,21.30
2015,08,23,11,11,21.40
2015,08,23,11,12,21.50
2015,08,23,11,13,21.50
2015,08,23,11,14,21.60
2015,08,23,11,15,21.60
2015,08,23,11,16,21.60
2015,08,23,11,17,21.70
2015,08,23,11,18,21.70
2015,08,23,11,19,21.70
2015,08,23,11,20,21.70
2015,08,23,11,21,21.70
2015,08,23,11,22,21.70
2015,08,23,11,23,21.60
2015,08,23,11,24,21.60
2015,08,23,11,25,21.60
2015,08,23,11,26,21.60
2015,08,23,11,27,21.70
2015,08,23,11,28,21.70
2015,08,23,11,29,21.80
2015,08,23,11,30,21.80
2015,08,23,11,31,21.70
2015,08,23,11,32,21.60
2015,08,23,11,33,21.50
2015,08,23,11,34,21.40
2015,08,23,11,35,21.40
2015,08,23,11,36,21.40
2015,08,23,11,37,21.40
2015,08,23,11,38,21.50
2015,08,23,11,39,21.50
2015,08,23,11,40,21.60
2015,08,23,11,41,21.60
2015,08,23,11,42,21.70
2015,08,23,11,43,21.80
2015,08,23,11,44,21.80
2015,08,23,11,45,21.80
2015,08,23,11,46,21.90
2015,08,23,11,47,21.90
2015,08,23,11,48,22.00
2015,08,23,11,49,22.10
2015,08,23,11,50,22.20
2015,08,23,11,51,22.10
2015,08,23,11,52,22.10
2015,08,23,11,53,22.10
2015,08,23,11,54,22.20
2015,08,23,11,55,22.20
2015,08,23,11,56,22.20
2015,08,23,11,57,22.20
2015,08,23,11,58,22.20
2015,08,23,11,59,22.20
2015,08,23,12,00,22.20
2015,08,23,12,01,22.20
2015,08,23,12,02,22.20
2015,08,23,12,03,22.20
2015,08,23,12,04,22.10
2015,08,23,12,05,21.90
2015,08,23,12,06,21.80
2015,08,23,12,07,21.80
2015,08,23,12,08,21.70
2015,08,23,12,09,21.60
2015,08,23,12,10,21.60
2015,08,23,12,11,21.70
2015,08,23,12,12,21.70
2015,08,23,12,13,21.70
2015,08,23,12,14,21.80
2015,08,23,12,15,21.80
2015,08,23,12,16,21.80
2015,08,23,12,17,21.90
2015,08,23,12,18,21.80
2015,08,23,12,19,21.80
2015,08,23,12,20,21.80
2015,08,23,12,21,21.80
2015,08,23,12,22,21.80
2015,08,23,12,23,21.80
2015,08,23,12,24,21.80
2015,08,23,12,25,21.90
2015,08,23,12,26,21.90
2015,08,23,12,27,22.00
2015,08,23,12,28,22.10
2015,08,23,12,29,22.10
2015,08,23,12,30,22.20
2015,08,23,12,31,22.20
2015,08,23,12,32,22.20
2015,08,23,12,33,22.20
2015,08,23,12,34,22.30
2015,08,23,12,35,22.30
2015,08,23,12,36,22.30
2015,08,23,12,37,22.40
2015,08,23,12,38,22.50
2015,08,23,12,39,22.60
2015,08,23,12,40,22.70
2015,08,23,12,41,22.90
2015,08,23,12,42,23.00
2015,08,23,12,43,23.00
2015,08,23,12,44,23.00
2015,08,23,12,45,23.10
2015,08,23,12,46,23.10
2015,08,23,12,47,23.10
2015,08,23,12,48,23.10
2015,08,23,12,49,23.10
2015,08,23,12,50,23.10
2015,08,23,12,51,23.10
2015,08,23,12,52,23.20
2015,08,23,12,53,23.20
2015,08,23,12,54,23.20
2015,08,23,12,55,23.20
2015,08,23,12,56,23.20
2015,08,23,12,57,23.20
2015,08,23,12,58,23.30
2015,08,23,12,59,23.30
2015,08,23,13,00,23.30
2015,08,23,13,01,23.30
2015,08,23,13,02,23.30
2015,08,23,13,03,23.30
2015,08,23,13,04,23.30
2015,08,23,13,05,23.30
2015,08,23,13,06,23.20
2015,08,23,13,07,23.20
2015,08,23,13,08,23.30
2015,08,23,13,09,23.30
2015,08,23,13,10,23.20
2015,08,23,13,11,23.20
2015,08,23,13,12,23.20
2015,08,23,13,13,23.20
2015,08,23,13,14,23.30
2015,08,23,13,15,23.30
2015,08,23,13,16,23.30
2015,08,23,13,17,23.40
2015,08,23,13,18,23.40
2015,08,23,13,19,23.40
2015,08,23,13,20,23.50
2015,08,23,13,21,23.60
2015,08,23,13,22,23.80
2015,08,23,13,23,23.90
2015,08,23,13,24,23.90
2015,08,23,13,25,23.80
2015,08,23,13,26,23.80
2015,08,23,13,27,23.80
2015,08,23,13,28,23.70
2015,08,23,13,29,23.70
2015,08,23,13,30,23.60
2015,08,23,13,31,23.60
2015,08,23,13,32,23.60
2015,08,23,13,33,23.70
2015,08,23,13,34,23.70
2015,08,23,13,35,23.70
2015,08,23,13,36,23.70
2015,08,23,13,37,23.60
2015,08,23,13,38,23.60
2015,08,23,13,39,23.60
2015,08,23,13,40,23.50
2015,08,23,13,41,23.50
2015,08,23,13,42,23.40
2015,08,23,13,43,23.30
2015,08,23,13,44,23.20
2015,08,23,13,45,23.10
2015,08,23,13,46,23.00
2015,08,23,13,47,22.90
2015,08,23,13,48,22.90
2015,08,23,13,49,22.90
2015,08,23,13,50,22.90
2015,08,23,13,51,22.90
2015,08,23,13,52,23.00
2015,08,23,13,53,23.00
2015,08,23,13,54,23.00
2015,08,23,13,55,23.10
2015,08,23,13,56,23.20
2015,08,23,13,57,23.20
2015,08,23,13,58,23.30
2015,08,23,13,59,23.30
2015,08,23,14,00,23.40
2015,08,23,14,01,23.40
2015,08,23,14,02,23.50
2015,08,23,14,03,23.50
2015,08,23,14,04,23.50
2015,08,23,14,05,23.50
2015,08,23,14,06,23.60
2015,08,23,14,07,23.70
2015,08,23,14,08,23.80
2015,08,23,14,09,23.80
2015,08,23,14,10,23.80
2015,08,23,14,11,23.80
2015,08,23,14,12,23.70
2015,08,23,14,13,23.60
2015,08,23,14,14,23.50
2015,08,23,14,15,23.40
2015,08,23,14,16,23.40
2015,08,23,14,17,23.40
2015,08,23,14,18,23.50
2015,08,23,14,19,23.50
2015,08,23,14,20,23.60
2015,08,23,14,21,23.70
2015,08,23,14,22,23.80
2015,08,23,14,23,23.80
2015,08,23,14,24,23.70
2015,08,23,14,25,23.70
2015,08,23,14,26,23.70
2015,08,23,14,27,23.70
2015,08,23,14,28,23.70
2015,08,23,14,29,23.70
2015,08,23,14,30,23.60
2015,08,23,14,31,23.60
2015,08,23,14,32,23.70
2015,08,23,14,33,23.70
2015,08,23,14,34,23.70
2015,08,23,14,35,23.80
2015,08,23,14,36,23.80
2015,08,23,14,37,23.90
2015,08,23,14,38,23.90
2015,08,23,14,39,24.00
2015,08,23,14,40,24.10
2015,08,23,14,41,24.20
2015,08,23,14,42,24.30
2015,08,23,14,43,24.30
2015,08,23,14,44,24.30
2015,08,23,14,45,24.30
2015,08,23,14,46,24.30
2015,08,23,14,47,24.40
2015,08,23,14,48,24.30
2015,08,23,14,49,24.40
2015,08,23,14,50,24.50
2015,08,23,14,51,24.50
2015,08,23,14,52,24.70
2015,08,23,14,53,24.80
2015,08,23,14,54,24.80
2015,08,23,14,55,24.80
2015,08,23,14,56,24.60
2015,08,23,14,57,24.50
2015,08,23,14,58,24.40
2015,08,23,14,59,24.30
2015,08,23,15,00,24.40
2015,08,23,15,01,24.50
2015,08,23,15,02,24.50
2015,08,23,15,03,24.50
2015,08,23,15,04,24.60
2015,08,23,15,05,24.70
2015,08,23,15,06,24.70
2015,08,23,15,07,24.80
2015,08,23,15,08,24.80
2015,08,23,15,09,24.90
2015,08,23,15,10,24.90
2015,08,23,15,11,24.80
2015,08,23,15,12,24.80
2015,08,23,15,13,24.70
2015,08,23,15,14,24.70
2015,08,23,15,15,24.70
2015,08,23,15,16,24.60
2015,08,23,15,17,24.50
2015,08,23,15,18,24.40
2015,08,23,15,19,24.40
2015,08,23,15,20,24.30
2015,08,23,15,21,24.30
2015,08,23,15,22,24.40
2015,08,23,15,23,24.30
2015,08,23,15,24,24.40
2015,08,23,15,25,24.50
2015,08,23,15,26,24.50
2015,08,23,15,27,24.60
2015,08,23,15,28,24.60
2015,08,23,15,29,24.60
2015,08,23,15,30,24.70
2015,08,23,15,31,24.60
2015,08,23,15,32,24.60
2015,08,23,15,33,24.60
2015,08,23,15,34,24.60
2015,08,23,15,35,24.60
2015,08,23,15,36,24.70
2015,08,23,15,37,24.60
2015,08,23,15,38,24.50
2015,08,23,15,39,24.50
2015,08,23,15,40,24.40
2015,08,23,15,41,24.30
2015,08,23,15,42,24.20
2015,08,23,15,43,24.20
2015,08,23,15,44,24.10
2015,08,23,15,45,24.10
2015,08,23,15,46,24.10
2015,08,23,15,47,24.10
2015,08,23,15,48,24.10
2015,08,23,15,49,24.10
2015,08,23,15,50,24.10
2015,08,23,15,51,24.10
2015,08,23,15,52,24.10
2015,08,23,15,53,24.00
2015,08,23,15,54,23.80
2015,08,23,15,55,23.70
2015,08,23,15,56,23.50
2015,08,23,15,57,23.40
2015,08,23,15,58,23.30
2015,08,23,15,59,23.20
2015,08,23,16,00,23.00
2015,08,23,16,01,22.90
2015,08,23,16,02,22.90
2015,08,23,16,03,22.90
2015,08,23,16,04,22.90
2015,08,23,16,05,23.00
2015,08,23,16,06,23.10
2015,08,23,16,07,23.00
2015,08,23,16,08,23.00
2015,08,23,16,09,22.90
2015,08,23,16,10,22.80
2015,08,23,16,11,22.60
2015,08,23,16,12,22.50
2015,08,23,16,13,22.30
2015,08,23,16,14,22.20
2015,08,23,16,15,22.10
2015,08,23,16,16,22.00
2015,08,23,16,17,21.80
2015,08,23,16,18,21.70
2015,08,23,16,19,21.60
2015,08,23,16,20,21.60
2015,08,23,16,21,21.60
2015,08,23,16,22,21.50
2015,08,23,16,23,21.50
2015,08,23,16,24,21.50
2015,08,23,16,25,21.50
2015,08,23,16,26,21.60
2015,08,23,16,27,21.60
2015,08,23,16,28,21.60
2015,08,23,16,29,21.60
2015,08,23,16,30,21.70
2015,08,23,16,31,21.70
2015,08,23,16,32,21.70
2015,08,23,16,33,21.60
2015,08,23,16,34,21.40
2015,08,23,16,35,21.20
2015,08,23,16,36,21.00
2015,08,23,16,37,20.80
2015,08,23,16,38,20.60
2015,08,23,16,39,20.40
2015,08,23,16,40,20.30
2015,08,23,16,41,20.20
2015,08,23,16,42,20.10
2015,08,23,16,43,20.00
2015,08,23,16,44,19.90
2015,08,23,16,45,19.90
2015,08,23,16,46,19.90
2015,08,23,16,47,19.80
2015,08,23,16,48,19.60
2015,08,23,16,49,19.50
2015,08,23,16,50,19.40
2015,08,23,16,51,19.40
2015,08,23,16,52,19.40
2015,08,23,16,53,19.30
2015,08,23,16,54,19.30
2015,08,23,16,55,19.10
2015,08,23,16,56,19.10
2015,08,23,16,57,19.00
2015,08,23,16,58,18.90
2015,08,23,16,59,18.90
2015,08,23,17,00,18.90
2015,08,23,17,01,18.90
2015,08,23,17,02,18.90
2015,08,23,17,03,18.90
2015,08,23,17,04,18.80
2015,08,23,17,05,18.80
2015,08,23,17,06,18.80
2015,08,23,17,07,18.80
2015,08,23,17,08,18.80
2015,08,23,17,09,18.80
2015,08,23,17,10,18.90
2015,08,23,17,11,18.90
2015,08,23,17,12,18.90
2015,08,23,17,13,19.00
2015,08,23,17,14,19.00
2015,08,23,17,15,19.10
2015,08,23,17,16,19.10
2015,08,23,17,17,19.20
2015,08,23,17,18,19.20
2015,08,23,17,19,19.20